Theta_e
318 319 320 324 328 325 324 326 329 331 330 330 331 331 328 328 329 342 336 337 337 338 338 335 334 334 333 333 333 335 336 337 336 335 333 333 332 331 330 330 329 330 329 331 331 331 330 330 329
319 318 322 326 327 322 321 324 327 327 327 331 329 326 326 331 335 336 336 336 336 339 335 336 334 330 333 334 333 334 337 337 336 333 332 332 332 330 330 330 330 330 329 329 329 329 328 329 329
318 318 325 325 326 321 321 321 326 326 327 329 327 326 326 330 334 336 336 336 336 336 336 336 329 328 333 333 331 337 337 336 334 332 331 331 332 330 329 331 331 329 328 328 328 328 328 328 327
320 323 324 325 324 321 321 322 325 326 324 324 324 326 329 331 334 335 334 334 335 338 336 329 327 324 327 331 331 336 336 335 333 328 330 330 332 328 327 328 328 328 329 327 329 328 327 325 325
319 324 325 325 323 320 319 322 324 325 322 323 323 325 331 332 334 334 334 333 336 339 336 333 328 327 327 328 331 333 335 334 333 330 328 329 330 327 328 329 329 326 328 329 328 327 326 325 324
323 324 325 326 322 320 320 322 323 322 321 322 322 323 331 333 333 334 333 333 336 338 336 334 330 327 325 326 331 330 333 334 333 330 326 326 329 328 327 326 328 328 326 327 326 325 324 324 323
323 326 325 325 322 321 321 321 321 320 320 321 323 324 330 333 334 334 333 332 336 338 337 334 333 329 326 325 326 328 332 334 332 330 327 325 327 328 326 325 328 330 328 324 325 324 325 323 323
322 325 325 324 322 320 321 321 320 320 320 321 324 321 327 333 334 333 333 333 336 338 338 336 334 332 332 329 326 326 328 332 331 328 325 323 322 326 325 323 326 326 325 325 324 324 323 322 322
319 324 325 323 321 320 320 320 318 317 319 321 323 322 328 334 334 333 333 334 336 336 337 337 335 333 332 332 327 326 327 329 330 327 323 326 326 326 326 326 324 325 324 324 324 324 323 322 322
320 323 323 322 320 319 320 319 318 317 318 319 322 324 332 334 334 334 334 335 336 336 337 337 336 335 333 331 329 331 331 330 330 330 327 329 327 325 326 325 323 324 323 323 323 324 323 323 324
320 323 322 320 318 319 320 319 318 318 318 319 319 322 333 334 334 334 334 335 336 336 337 336 337 336 334 332 332 332 331 331 331 331 330 328 326 323 324 325 323 323 322 323 322 322 323 323 322
319 316 318 316 315 317 319 318 318 318 318 317 319 321 330 333 332 333 333 334 335 336 336 335 336 336 336 334 333 333 332 331 331 331 330 328 326 326 325 325 325 324 322 323 323 322 322 322 322
319 316 316 315 314 316 316 317 317 317 317 315 315 320 327 330 331 330 331 332 334 335 335 335 335 335 335 335 334 334 333 332 331 330 330 328 326 326 325 325 325 324 322 322 322 321 321 321 321
317 316 316 315 315 314 316 316 315 316 315 315 314 318 323 327 329 330 330 331 333 334 335 335 335 334 334 334 333 333 333 333 332 330 330 328 327 326 325 325 324 323 323 322 321 321 321 321 321
316 316 316 315 315 315 314 315 315 314 312 313 314 316 319 324 327 330 331 331 332 333 334 335 335 335 333 333 333 332 331 333 332 331 330 328 327 326 325 325 324 324 322 321 320 320 319 320 320
315 316 317 314 314 314 314 318 317 313 313 313 314 315 316 319 324 328 330 331 331 332 334 336 336 336 334 333 333 332 332 331 331 331 331 329 328 326 324 323 323 323 321 321 320 319 317 316 317
315 316 316 313 313 314 314 316 313 312 314 313 313 313 314 314 316 322 327 330 331 332 333 335 336 335 334 333 333 333 332 332 331 331 330 331 329 327 325 324 323 322 321 320 318 316 317 317 317
316 316 314 315 312 313 314 315 314 313 313 315 315 315 315 314 314 313 313 318 327 330 332 333 335 336 335 333 332 333 332 332 332 331 330 330 330 329 327 325 323 323 321 321 320 319 317 316 316
316 314 314 313 312 313 314 314 314 314 314 314 315 316 315 314 313 310 309 310 311 316 328 331 333 335 335 332 333 332 332 332 332 332 331 331 330 330 328 326 325 325 322 321 322 321 319 317 316
314 313 313 313 312 314 314 314 314 314 314 314 313 313 313 312 312 311 310 309 309 310 314 324 330 332 334 333 332 332 332 332 332 331 331 331 331 331 329 327 326 325 323 322 321 321 319 317 316
312 313 313 313 313 312 312 313 314 311 310 310 310 310 311 312 312 312 312 313 313 310 309 312 320 327 331 333 331 331 332 331 331 331 331 330 330 330 330 329 327 325 324 323 322 320 320 317 316
312 311 312 313 314 312 312 311 314 312 312 312 313 313 313 313 312 313 313 312 313 314 311 307 313 319 325 330 331 330 329 329 329 328 328 328 327 328 329 330 329 329 327 326 326 323 321 319 316
312 311 312 313 313 313 312 311 312 310 312 314 314 314 314 314 313 312 311 311 311 314 317 312 308 315 320 324 327 328 327 327 326 327 328 328 327 327 327 328 328 328 328 327 327 325 323 321 318
310 312 312 313 312 311 311 312 312 312 312 314 314 314 313 312 311 310 310 311 311 312 313 316 319 317 315 320 324 325 324 324 325 325 325 327 327 327 329 328 328 327 327 327 326 325 323 322 320
312 311 312 312 314 312 309 313 312 310 311 314 314 313 312 312 312 312 311 310 310 310 310 311 313 317 320 319 320 321 322 322 321 321 322 322 322 322 322 321 322 323 323 323 323 322 322 321 321
312 311 315 321 316 314 308 312 312 309 310 314 313 312 312 312 312 311 310 309 309 309 309 309 309 309 310 311 312 314 317 317 315 313 313 314 313 313 311 311 312 314 315 315 317 317 318 318 319
312 311 311 311 308 315 312 311 310 310 311 313 313 312 312 312 312 311 309 309 307 307 307 307 306 306 307 307 307 307 307 307 307 307 307 306 306 305 305 306 307 307 308 309 310 312 313 313 313
311 310 310 311 321 318 312 312 312 311 311 312 312 312 313 312 311 310 308 307 306 305 304 304 304 304 304 303 303 303 303 303 302 302 302 302 302 302 302 302 302 302 303 304 305 306 307 309 310
309 310 310 310 313 327 317 311 311 313 312 313 313 313 312 312 311 309 307 306 305 304 304 303 302 302 302 301 301 301 301 301 301 300 300 300 300 301 301 301 301 301 300 300 300 301 302 303 304
311 311 311 312 314 311 315 315 309 312 312 314 313 313 312 312 310 308 306 305 305 304 303 302 301 300 300 300 299 298 298 298 298 298 297 297 297 297 297 297 297 297 297 297 297 298 298 299 300
Wind_Speed
10 8 5 5 5 5 5 5 4 6 5 5 5 4 10 10 8 4 14 9 18 17 16 14 13 13 12 13 11 11 13 14 14 14 14 16 16 17 15 16 17 17 16 15 15 15 14 13 14
6 5 3 4 5 6 6 8 6 5 7 5 3 1 3 10 9 12 13 14 18 15 13 12 11 13 14 13 11 11 14 14 13 15 15 15 16 16 15 14 14 16 15 15 15 15 15 14 15
6 3 6 3 4 2 6 8 9 7 6 3 2 2 4 5 7 12 14 20 18 16 12 12 12 12 14 13 12 13 14 12 13 14 14 14 14 14 14 13 13 15 14 14 13 15 15 17 16
3 5 4 7 4 6 3 8 9 8 3 1 2 5 5 5 9 8 18 20 19 15 12 13 12 13 13 13 13 13 14 11 11 12 13 14 13 13 13 14 11 11 13 13 14 15 15 15 14
2 4 4 3 2 4 3 6 8 8 7 6 3 6 4 6 8 15 22 18 18 14 12 12 12 12 12 14 13 13 13 10 10 8 10 13 13 13 13 12 12 8 12 13 14 14 12 12 12
4 4 4 7 6 4 4 6 7 7 6 5 4 4 6 8 12 18 20 19 16 15 13 11 11 11 11 12 12 11 12 10 8 8 8 12 12 11 9 13 9 8 10 13 13 11 11 10 9
9 7 9 6 7 6 6 7 8 7 7 5 2 3 6 11 14 20 19 18 15 14 13 12 11 10 10 11 11 11 12 9 7 7 8 11 12 11 9 10 10 9 8 11 12 10 10 8 8
4 8 9 7 8 5 8 9 1 5 6 4 2 4 7 15 17 20 19 18 15 14 12 12 11 11 9 9 10 10 11 11 7 6 7 9 10 10 9 8 10 7 6 5 9 8 7 6 5
2 7 9 9 7 7 10 8 3 2 4 3 4 5 7 18 20 20 19 18 16 14 13 12 12 11 10 9 9 10 10 9 6 4 5 10 5 6 8 6 9 8 6 5 4 6 7 5 3
7 11 11 3 6 9 13 9 9 6 7 6 7 6 13 18 20 22 21 20 20 18 14 12 12 11 11 9 9 8 7 7 6 5 5 4 5 5 5 5 7 8 6 5 4 4 7 5 1
5 11 4 5 4 3 12 8 7 6 8 7 12 12 14 17 18 20 20 19 20 20 17 15 15 13 12 10 10 9 8 7 7 7 7 5 5 6 5 4 4 4 5 3 1 5 2 3 2
9 2 3 5 4 4 11 8 6 7 6 6 4 15 16 15 17 19 20 20 20 19 19 17 16 16 14 12 11 9 9 9 8 9 9 7 6 6 6 5 5 5 4 4 3 3 3 3 3
10 7 5 7 6 5 5 7 1 7 6 5 4 6 12 13 15 16 17 18 19 19 18 18 17 16 16 14 13 12 11 10 9 9 10 8 7 7 7 7 7 6 6 5 5 5 4 5 5
5 9 10 6 8 5 5 4 2 3 3 5 5 7 10 11 15 15 16 17 19 19 19 18 18 17 16 17 18 14 12 10 11 10 10 12 9 8 8 8 8 7 7 7 6 6 6 7 7
11 9 9 6 5 4 2 6 9 9 4 4 7 9 8 10 14 17 18 18 19 20 19 20 19 18 19 19 19 16 14 13 11 11 11 11 11 10 9 9 8 8 8 9 8 9 10 9 8
7 7 8 6 6 2 4 9 7 4 5 8 8 9 9 8 13 15 15 17 17 18 19 18 18 18 20 20 20 19 18 17 18 13 10 13 13 12 14 15 14 13 14 11 10 10 11 13 13
8 11 12 5 4 3 8 7 7 2 2 4 6 6 6 7 9 11 14 15 16 18 18 20 20 19 20 21 20 19 17 18 16 16 15 12 13 13 13 14 16 16 16 17 17 15 15 13 13
14 15 7 12 7 5 8 12 5 4 3 4 6 6 5 6 7 7 10 13 16 17 18 20 20 20 18 19 21 20 21 21 18 17 19 15 15 14 15 14 13 14 15 17 18 20 18 20 19
16 14 10 8 3 6 12 12 12 9 6 7 8 7 5 4 2 3 6 7 11 15 19 21 22 21 19 20 19 21 22 22 23 24 24 23 20 15 17 17 15 17 21 21 19 17 18 19 19
8 13 11 4 4 4 4 11 11 10 7 4 4 6 5 3 3 1 1 3 6 11 14 18 21 20 20 22 21 17 17 20 24 25 25 25 24 22 18 19 19 18 24 25 26 24 21 22 20
10 14 11 4 6 1 2 8 11 5 5 4 3 4 3 3 3 3 4 3 0 2 8 13 16 18 18 16 17 18 15 13 13 18 21 23 22 23 25 22 21 20 23 26 25 25 30 23 21
9 1 10 11 9 5 3 4 7 9 7 4 4 6 5 5 5 5 6 6 5 4 1 7 11 14 16 16 16 15 14 13 13 14 16 18 18 18 21 24 28 27 27 30 31 30 30 29 23
5 7 7 6 5 2 7 5 5 7 8 8 7 6 6 5 6 7 8 8 7 7 8 7 8 9 10 12 13 11 14 12 10 9 8 11 15 16 17 18 20 23 26 28 30 30 30 31 29
15 12 10 5 2 6 11 9 8 8 12 10 8 9 8 9 8 9 9 10 10 10 11 12 12 10 8 8 9 8 6 7 8 7 8 6 8 9 10 14 18 22 24 26 28 28 31 32 33
9 15 4 5 5 7 4 4 12 4 4 11 13 12 11 10 9 8 10 12 12 12 12 14 14 16 13 12 10 7 5 3 2 4 4 6 7 9 9 11 12 15 17 18 20 25 28 30 32
16 15 6 7 5 4 2 8 4 8 3 11 13 13 11 10 8 8 10 11 12 13 14 15 16 17 16 16 14 12 9 7 6 5 4 5 5 6 7 9 9 11 14 16 17 21 22 23 28
7 9 3 6 1 2 6 6 4 7 9 13 14 13 12 11 9 8 10 11 12 13 13 14 15 17 16 15 15 14 13 11 10 9 8 7 7 8 10 10 11 12 13 13 14 17 18 19 22
6 11 4 3 5 5 6 6 7 13 17 16 17 16 14 12 10 9 10 10 11 11 13 14 14 16 14 15 15 14 14 13 12 12 12 11 11 12 13 14 15 16 16 16 16 18 19 19 21
5 6 6 4 3 4 4 6 2 19 21 21 18 17 16 14 12 10 11 10 11 11 12 12 13 14 14 14 14 14 14 13 13 13 13 13 13 14 15 16 16 17 18 18 19 19 21 21 23
6 11 12 6 5 4 2 4 4 5 17 19 18 15 14 13 12 11 13 12 11 11 11 12 12 14 12 12 14 14 13 13 14 14 14 14 15 16 17 18 19 20 21 21 21 21 22 22 22
Wind_Direction
334 322 313 254 234 250 126 134 88 118 134 63 54 319 20 24 6 39 137 130 135 134 139 142 146 144 137 129 124 121 121 114 101 98 90 94 92 87 87 88 84 82 81 82 85 87 90 95 92
307 334 253 267 253 196 127 123 151 133 74 98 104 251 246 73 55 118 132 142 136 133 137 139 148 144 137 133 128 123 125 112 97 91 91 97 95 89 90 94 91 83 83 84 85 85 85 90 92
299 310 271 283 275 122 131 160 141 109 115 152 144 314 9 69 98 129 128 142 137 136 136 145 142 140 140 139 137 122 129 117 99 96 96 103 101 100 97 93 93 84 81 84 86 87 91 89 88
293 208 214 248 162 67 51 156 127 143 135 191 327 125 107 45 131 112 141 141 139 137 138 144 139 137 141 142 139 130 132 118 102 100 100 105 105 100 102 100 88 87 84 94 94 91 90 89 96
230 257 235 233 155 102 102 116 158 169 147 160 201 109 79 107 117 133 142 147 143 138 142 140 141 138 136 144 144 144 130 124 122 101 98 108 113 113 109 108 101 83 94 99 89 88 90 92 98
223 272 221 224 166 124 132 152 167 173 157 124 212 134 94 126 136 144 147 150 149 143 140 142 144 141 140 144 146 144 138 143 131 112 106 114 120 115 114 116 105 108 95 101 88 91 90 99 94
247 217 228 235 156 165 146 160 185 177 161 173 40 155 108 147 143 150 152 154 155 149 146 146 146 149 146 144 149 145 140 144 144 128 128 125 130 131 125 126 97 108 109 113 107 103 108 103 102
268 241 214 225 186 150 142 167 231 197 142 80 339 170 159 145 149 154 156 156 162 158 156 154 153 150 148 147 149 150 152 152 162 141 140 131 129 140 136 116 125 100 94 103 131 137 138 132 122
291 224 212 204 211 140 153 172 173 81 145 179 139 36 83 144 149 157 160 161 168 173 170 168 164 163 160 155 161 159 163 169 165 146 132 98 121 123 118 155 136 130 128 111 123 168 152 146 139
223 217 208 206 190 159 169 200 161 179 165 178 163 117 138 152 160 167 172 174 176 180 174 184 177 176 170 165 169 163 169 167 161 155 146 145 140 152 163 151 154 152 127 147 146 165 148 121 171
204 202 140 148 99 163 165 186 173 201 188 182 188 165 164 168 175 182 184 185 186 185 185 186 184 187 182 180 176 178 183 181 186 182 180 175 163 161 148 158 152 152 146 165 184 145 165 235 233
190 87 136 132 111 147 165 144 192 218 74 40 65 156 169 180 185 195 194 192 192 195 194 192 188 189 192 192 190 193 191 191 192 194 192 185 177 178 178 177 180 183 189 200 199 215 224 238 246
240 143 110 108 122 147 126 172 97 215 150 110 100 167 179 187 193 199 199 199 198 201 204 202 198 195 196 196 198 200 202 202 202 201 203 196 196 190 189 192 190 194 198 201 210 213 221 230 234
153 139 125 127 132 121 200 168 186 157 132 195 192 190 194 198 198 196 201 200 202 204 207 206 207 207 203 203 208 203 204 209 208 210 210 205 203 201 199 200 201 203 207 212 213 217 226 235 236
152 127 132 150 150 121 266 215 224 129 150 165 197 199 208 201 202 205 200 203 204 206 206 207 208 209 211 211 214 213 209 207 213 219 219 217 214 214 210 210 209 212 215 213 218 225 228 238 248
170 177 173 151 178 115 190 250 170 115 221 224 204 193 194 202 214 213 209 211 207 209 208 207 205 208 212 215 216 221 228 232 224 215 225 225 224 220 223 226 233 227 222 218 224 231 241 244 245
201 195 206 151 202 147 210 248 94 162 201 198 201 204 200 201 209 215 219 220 216 214 213 210 208 209 210 213 220 220 225 229 235 237 228 227 229 229 231 238 240 242 241 243 239 242 241 252 253
188 214 191 209 172 210 200 237 157 178 223 228 178 182 198 189 207 196 217 228 226 222 218 218 216 216 213 213 219 227 233 232 229 236 241 239 235 237 235 238 238 240 239 245 245 245 247 250 251
202 208 197 187 111 208 229 248 249 218 226 240 225 220 224 212 121 250 239 234 231 224 223 221 218 217 213 214 209 219 225 235 247 251 252 255 253 237 238 241 240 239 244 244 249 249 246 253 255
197 197 187 112 127 222 193 255 242 235 229 244 260 247 240 231 173 106 215 241 240 231 224 225 223 218 215 221 219 216 228 237 250 256 259 258 257 249 238 241 243 244 255 256 249 248 246 252 250
195 206 173 217 142 169 273 260 231 176 190 185 201 229 213 212 172 126 110 106 47 232 223 223 222 219 215 212 228 228 226 231 235 246 253 262 264 261 251 245 246 247 255 263 264 254 256 250 261
191 97 142 134 173 219 200 264 192 180 185 190 175 189 166 147 131 116 103 80 73 52 89 203 207 208 208 208 210 217 223 233 247 255 263 269 271 269 266 265 259 262 261 266 271 272 263 257 248
161 155 135 141 191 265 185 253 228 166 197 182 166 158 138 123 119 106 95 85 75 74 82 104 155 177 188 200 209 212 231 236 249 257 262 268 279 278 276 275 273 270 270 272 273 272 271 266 253
140 121 96 107 180 245 221 224 223 180 212 167 165 146 150 132 119 107 94 88 79 77 77 87 99 107 132 160 185 199 207 232 247 260 269 275 270 289 282 275 281 283 282 279 283 283 276 275 265
171 162 150 186 201 235 35 214 249 135 163 181 168 156 146 139 126 114 105 94 85 81 83 84 88 88 92 98 108 134 153 182 204 253 274 296 295 299 308 299 289 285 282 284 286 283 282 278 276
193 191 168 180 197 175 111 225 227 114 180 155 152 150 144 135 130 119 107 99 90 83 82 85 85 88 88 90 90 91 96 91 82 59 45 36 13 354 325 324 314 307 301 300 295 288 285 282 279
174 206 74 106 67 181 193 238 186 161 175 161 157 159 158 145 138 128 115 104 100 90 83 85 87 84 82 84 85 81 79 77 69 62 55 39 23 1 354 344 336 327 319 312 306 300 295 294 288
213 148 166 221 166 219 196 244 233 189 183 177 174 175 164 151 144 140 127 116 104 96 95 90 87 85 81 82 82 80 76 73 65 57 50 42 29 18 12 4 358 348 338 331 321 312 306 301 297
156 191 216 228 220 219 204 241 216 190 185 182 177 176 168 164 158 149 137 127 118 111 101 95 89 85 81 81 84 80 76 74 67 56 45 36 27 20 13 5 359 352 345 340 334 326 319 310 303
264 223 196 202 207 261 34 258 342 195 182 179 174 167 169 165 158 151 149 142 134 123 113 102 94 92 89 87 82 75 68 62 57 46 34 26 19 11 5 360 353 348 343 340 336 330 323 315 308